Flag for United Kingdom

Past Weather in Newcastle upon Tyne, England, United Kingdom — Yesterday and Last 2 Weeks

Currently: 55 °F. Cool. (Weather station: Newcastle, United Kingdom). See more current weather

Past Weather in Newcastle upon Tyne — Graph

°F

Newcastle upon Tyne Temperature Yesterday

Maximum temperature yesterday: 73 °F (at 2:20 pm)
Minimum temperature yesterday: 52 °F (at 12:50 am)
Average temperature yesterday: 62 °F

High & Low Weather Summary for the Past Weeks

 TemperatureHumidityPressure
High81 °F (Jul 17, 2:50 pm)100% (Jul 12, 3:20 am)30.39 "Hg (Jul 12, 3:20 am)
Low48 °F (Jul 25, 12:50 am)44% (Jul 16, 2:20 pm)29.74 "Hg (Jul 26, 5:50 pm)
Average63 °F81%30.11 "Hg
* Reported Jul 12 3:20 am — Jul 27 3:50 am, Newcastle upon Tyne. Weather by CustomWeather, © 2021

Note: Actual official high and low records may vary slightly from our data, if they occured in-between our weather recording intervals... More about our weather records

Newcastle upon Tyne Weather History for the Previous 24 Hours

Scroll right to see more
 ConditionsComfort  
Time TempWeatherWind HumidityBarometerVisibility
3:50 am
Tue, Jul 27
55 °FCool.5 mph94%29.74 "HgN/A
3:20 am55 °FCool.5 mph94%29.74 "HgN/A
2:50 am57 °FCool.6 mph94%29.74 "HgN/A
2:20 am59 °FPassing clouds.5 mph88%29.77 "HgN/A
1:50 am57 °FPassing clouds.6 mph94%29.77 "HgN/A
1:20 am59 °FPassing clouds.6 mph88%29.77 "HgN/A
12:50 am59 °FPassing clouds.5 mph88%29.77 "HgN/A
12:20 am61 °FPassing clouds.6 mph83%29.77 "HgN/A
11:50 pm
Mon, Jul 26
59 °FPassing clouds.2 mph88%29.77 "HgN/A
11:20 pm59 °FPassing clouds.3 mph88%29.77 "HgN/A
10:50 pm59 °FPassing clouds.5 mph88%29.77 "HgN/A
10:20 pm61 °FPassing clouds.1 mph88%29.77 "HgN/A
9:50 pm63 °FPassing clouds.2 mph83%29.77 "HgN/A
9:20 pm64 °FScattered clouds.5 mph78%29.77 "HgN/A
8:50 pm64 °FMild.5 mph78%29.74 "HgN/A
8:20 pm66 °FPassing clouds.6 mph73%29.74 "HgN/A
7:50 pm66 °FPassing clouds.7 mph73%29.74 "HgN/A
7:20 pm68 °FPassing clouds.6 mph73%29.74 "HgN/A
6:50 pm70 °FPassing clouds.5 mph64%29.74 "HgN/A
6:20 pm70 °FMild.6 mph69%29.74 "HgN/A
5:50 pm72 °FMild.8 mph65%29.74 "HgN/A
5:20 pm72 °FPassing clouds.6 mph65%29.77 "HgN/A
4:50 pm70 °FPassing clouds.6 mph69%29.77 "HgN/A
4:20 pm70 °FPassing clouds.7 mph69%29.77 "HgN/A
3:50 pm72 °FScattered clouds.5 mph69%29.77 "HgN/A
2:50 pm72 °FScattered clouds.6 mph69%29.77 "HgN/A
2:20 pm73 °FScattered clouds.2 mph65%29.77 "HgN/A
1:50 pm70 °FPartly sunny.1 mph64%29.77 "HgN/A
1:20 pm70 °FPartly sunny.2 mph64%29.77 "HgN/A
12:50 pm70 °FPartly sunny.2 mph64%29.77 "HgN/A
12:20 pm68 °FPartly sunny.2 mph73%29.80 "HgN/A
11:50 am66 °FPartly sunny.2 mph73%29.80 "HgN/A
11:20 am68 °FPartly sunny.3 mph69%29.80 "HgN/A
10:50 am66 °FPartly sunny.1 mph73%29.80 "HgN/A
10:20 am64 °FOvercast.2 mph78%29.80 "HgN/A
9:50 am63 °FOvercast.2 mph83%29.80 "HgN/A
9:20 am63 °FOvercast.3 mph83%29.80 "HgN/A
8:50 am61 °FOvercast.3 mph88%29.80 "Hg6 mi
8:20 am59 °FOvercast.3 mph94%29.80 "Hg6 mi
7:50 am57 °FOvercast.2 mph94%29.80 "Hg6 mi
7:20 am55 °FOvercast.3 mph100%29.80 "Hg5 mi
6:50 am55 °FMostly cloudy.3 mph94%29.80 "Hg5 mi
6:20 am54 °FPartly sunny.5 mph100%29.80 "Hg4 mi
5:50 am54 °FPartly sunny.3 mph100%29.80 "Hg4 mi
5:20 am54 °FPartly sunny.3 mph100%29.80 "Hg4 mi
4:50 am54 °FPassing clouds.3 mph100%29.80 "Hg4 mi
4:20 am54 °FPassing clouds.3 mph100%29.80 "Hg4 mi
Weather by CustomWeather, © 2021

See weather overview